Location: Street
(51.1247°N, 2.7429°W)
Time: 05:05:16
(UTC+01:00)

CAS-6 - Pass Details

Date: 02 April 2023
Orbit: 610 x 632 km, 97.9° (Epoch: 29 May)

Event Time Altitude Azimuth Distance (km) Brightness Sun altitude
Exits shadow 22:55:23 44° 26° (NNE) 872 ? -26.4°
Drops below altitude 10° 22:58:42 10° 354° (N) 2,013 ? -26.7°
Sets 23:00:56 0° 350° (N) 2,928 ? -26.9°
